Indianapolis, IN

8:49 AM EDT on September 24, 2017 (GMT -0400)
Indianapolis International

Weather History for KIND - July, 2014

Change the Weather History Date:

Monday, July 28, 2014

  Actual Average Record
Temperature  
Mean Temperature 65 °F 75 °F  
Max Temperature 73 °F 85 °F 101 °F (1930)
Min Temperature 57 °F 66 °F 51 °F (2013)
Degree Days  
Heating Degree Days 0 0  
Month to date heating degree days 3 0  
Since 1 June heating degree days 5 16  
Since 1 July heating degree days 3 0  
Cooling Degree Days 0 10  
Month to date cooling degree days 164 295  
Year to date cooling degree days 506 605  
Since 1 June cooling degree days 402 521  
Growing Degree Days 15 (Base 50)    
Moisture  
Dew Point 54 °F    
Average Humidity 68    
Maximum Humidity 84    
Minimum Humidity 52    
Precipitation  
Precipitation 0.00 in 0.12 in 2.95 in (1979)
Month to date precipitation 2.87 4.17  
Year to date precipitation 27.34 25.82  
Snow  
Snow 0.00 in 0.00 in 0.00 in ()
Month to date snowfall 0.0 0.0  
Since 1 June snowfall 0.0 0.0  
Since 1 July snowfall 0.0 0.0  
Snow Depth 0.00 in    
Sea Level Pressure  
Sea Level Pressure 29.96 in    
Wind  
Wind Speed 13 mph (NW)    
Max Wind Speed 23 mph    
Max Gust Speed 29 mph    
Visibility 10 miles    
Events      
T = Trace of Precipitation, MM = Missing Value Source: NWS Daily Summary

Daily Weather History Graph

Daily Weather History Graph

Search for Another Location

Airport or City:

Trip Planner

Search our weather history database for the weather conditions in past years. The results will help you decide how hot, cold, wet, or windy it might be!

Date:

Astronomy

Jul. 28, 2014 Rise Set
Actual Time 6:40 AM EDT 9:02 PM EDT
Civil Twilight 6:10 AM EDT 9:32 PM EDT
Nautical Twilight 5:32 AM EDT 10:10 PM EDT
Astronomical Twilight 4:50 AM EDT 10:51 PM EDT
Moon 8:21 AM EDT (7/28) 9:44 PM EDT (7/28)
Length of Visible Light 15h 22m
Length of Day
14h 21m
Waxing Crescent, 3% of the Moon is Illuminated
Jul 28
Waxing Crescent
Aug 3
First Quarter
Aug 10
Full
Aug 17
Last Quarter
Aug 25
New

Hourly Weather History & Observations

Time (EDT) Temp. Dew Point Humidity Pressure Visibility Wind Dir Wind Speed Gust Speed Precip Events Conditions
12:54 AM 66.9 °F 57.0 °F 70% 29.82 in 10.0 mi WNW 12.7 mph - N/A   Clear
1:54 AM 66.0 °F 57.0 °F 73% 29.83 in 10.0 mi WNW 12.7 mph - N/A   Mostly Cloudy
2:54 AM 64.9 °F 57.9 °F 78% 29.83 in 10.0 mi WNW 12.7 mph - N/A   Clear
3:54 AM 64.4 °F 57.2 °F 77% 29.86 in 10.0 mi NW 11.5 mph - N/A   Scattered Clouds
4:54 AM 63.0 °F 57.9 °F 84% 29.86 in 10.0 mi NW 13.8 mph - N/A   Mostly Cloudy
5:09 AM 63.0 °F 57.0 °F 81% 29.88 in 10.0 mi NW 13.8 mph - N/A   Scattered Clouds
5:22 AM 63.0 °F 57.9 °F 84% 29.88 in 10.0 mi NW 15.0 mph - N/A   Mostly Cloudy
5:54 AM 63.0 °F 57.0 °F 81% 29.88 in 10.0 mi NW 16.1 mph 23.0 mph N/A   Overcast
6:54 AM 63.0 °F 55.9 °F 78% 29.91 in 10.0 mi NNW 12.7 mph - N/A   Overcast
7:54 AM 63.0 °F 55.0 °F 75% 29.93 in 10.0 mi NNW 12.7 mph - N/A   Overcast
8:54 AM 63.0 °F 55.0 °F 75% 29.95 in 10.0 mi NNW 13.8 mph - N/A   Overcast
9:54 AM 63.0 °F 55.9 °F 78% 29.97 in 10.0 mi NNW 13.8 mph - N/A   Overcast
10:54 AM 63.0 °F 55.9 °F 78% 29.99 in 10.0 mi NW 11.5 mph - N/A   Overcast
11:54 AM 64.0 °F 55.9 °F 75% 30.00 in 10.0 mi NNW 11.5 mph - N/A   Overcast
12:54 PM 66.0 °F 57.0 °F 73% 30.00 in 10.0 mi NW 10.4 mph - N/A   Overcast
1:54 PM 68.0 °F 57.0 °F 68% 30.00 in 10.0 mi NNW 11.5 mph - N/A   Overcast
2:54 PM 70.0 °F 55.9 °F 61% 30.00 in 10.0 mi NW 12.7 mph 19.6 mph N/A   Mostly Cloudy
3:54 PM 71.6 °F 53.6 °F 53% 30.02 in 10.0 mi NNW 16.1 mph 25.3 mph N/A   Mostly Cloudy
4:54 PM 70.0 °F 54.0 °F 57% 30.02 in 10.0 mi NNW 16.1 mph 26.5 mph N/A   Scattered Clouds
5:54 PM 69.1 °F 53.1 °F 57% 30.02 in 10.0 mi North 18.4 mph - N/A   Scattered Clouds
6:54 PM 66.9 °F 52.0 °F 59% 30.02 in 10.0 mi NNW 16.1 mph - N/A   Scattered Clouds
7:54 PM 64.9 °F 46.9 °F 52% 30.04 in 10.0 mi NW 18.4 mph 24.2 mph N/A   Partly Cloudy
8:54 PM 61.0 °F 46.0 °F 58% 30.04 in 10.0 mi NNW 13.8 mph - N/A   Clear
9:54 PM 57.9 °F 46.0 °F 65% 30.04 in 10.0 mi NW 9.2 mph - N/A   Clear
10:54 PM 59.0 °F 46.0 °F 62% 30.04 in 10.0 mi North 11.5 mph - N/A   Clear
11:54 PM 59.0 °F 46.9 °F 64% 30.03 in 10.0 mi North 11.5 mph 20.7 mph N/A   Clear